[[{"header":{"parameterUnit":"m.s-1","parameterCategory":1,"la1":30.2991,"la2":30.254,"lo1":-89.0895,"lo2":-89.0444,"dy":0.0017,"dx":0.0017,"nx":28,"ny":28,"refTime":"2023-09-12T21:00:00:Z","depth":0,"parameterNumber":2,"parameterNumberName":"U-component_of_WINDS"},"data":[0,0,0,0,0,0,0,0,0,0,0,0,0,0,0,0,0,0,0,0,0,0,0,0,0,0,0,0,0,0,0,0,0,0,0,0,0,0,0,0,0,0,0,0,0,0,0,0,0,0,0,0,0,0,0,0,0,0,3.342,3.342,0,3.3485,3.3486,3.3487,3.3432,3.3429,3.3427,3.3425,3.3491,3.3495,3.3499,0,0,0,0,0,0,0,0,0,0,0,0,0,3.3243,3.3247,3.342,3.342,3.3421,3.3485,3.3486,3.3487,3.3432,3.3429,3.3426,3.3424,3.349,3.3494,3.3499,0,0,0,0,0,0,0,0,0,0,0,0,0,3.3316,3.3248,3.3419,3.3402,3.3401,3.3485,3.3486,3.3487,3.3433,3.3429,3.3426,3.3423,3.3488,3.3494,3.35,3.3605,0,0,3.3518,3.352,0,0,0,0,0,0,0,0,3.3312,3.3322,3.3403,3.3403,3.3402,3.3447,3.3448,3.3527,3.3434,3.3421,3.3425,3.3421,3.3479,3.3485,3.3505,3.3608,3.3611,3.3518,3.3522,3.3524,3.3526,0,0,0,0,0,0,0,3.3307,3.3319,3.3445,3.3405,3.3404,3.3389,3.3396,3.3463,3.3468,3.3421,3.3418,3.3426,3.3478,3.35,3.3506,3.3612,3.3518,3.3523,3.3527,3.3529,3.38,3.3803,0,0,0,0,0,0,3.3304,3.3315,3.3443,3.3447,3.3347,3.3395,3.3402,3.3436,3.3467,3.3469,3.3429,3.3423,3.3491,3.35,3.3509,3.363,3.3524,3.353,3.3533,3.3796,3.38,3.3804,0,0,0,0,0,0,3.33,3.3316,3.3441,3.338,3.3395,3.3402,3.344,3.3439,3.3461,3.3473,3.3474,3.345,3.3489,3.35,3.358,3.3632,3.3532,3.3538,3.3792,3.3797,3.3802,3.3877,0,0,0,0,0,0,3.3295,3.3315,3.3356,3.3382,3.3399,3.3513,3.3443,3.3443,3.3471,3.3464,3.3493,3.3495,3.3487,3.3572,3.3586,3.3638,3.3542,3.3787,3.3794,3.3801,3.387,3.3884,3.3897,0,0,0,0,0,3.3289,3.3375,3.3358,3.3374,3.345,3.3516,3.3525,3.3515,3.3476,3.3516,3.3523,3.3494,3.3625,3.3581,3.3596,3.3651,3.3784,3.3792,3.38,3.3864,3.3881,3.3896,0,0,0,0,0,0,3.3355,3.3378,3.336,3.3456,3.3484,3.3506,3.3557,3.3535,3.3575,3.3567,3.3552,3.3559,3.3643,3.3655,3.3606,3.3752,3.3698,3.3709,3.3741,3.3757,3.3771,3.3764,3.3547,0,0,0,0,0,3.338,3.3433,3.345,3.3533,3.3548,3.355,3.3579,3.3568,3.3597,3.3608,3.3622,3.365,3.3697,3.3728,3.3773,3.3872,3.3876,3.3917,3.3931,3.3942,3.3951,3.4001,3.4018,3.3832,3.3832,3.3831,0,0,3.3434,3.3453,3.3487,3.3547,3.3567,3.362,3.3561,3.362,3.3658,3.3617,3.3693,3.3704,3.3734,3.3823,3.3864,3.3836,3.4004,3.3952,3.3961,3.3964,3.4011,3.4029,3.4044,3.3837,3.3836,3.3835,0,0,3.3557,3.3579,3.3648,3.367,3.3702,3.3702,3.3719,3.3744,3.375,3.3826,3.3795,3.384,3.3923,3.3944,3.3966,3.4096,3.4069,3.4111,3.418,3.4229,3.4243,3.4256,3.4299,3.4315,3.4121,3.4121,3.4121,0,3.3619,3.3698,3.3687,3.3748,3.3773,3.3739,3.3808,3.383,3.3874,3.3892,3.3862,3.3962,3.3981,3.4072,3.4104,3.4124,3.4141,3.4106,3.4242,3.4255,3.4267,3.4307,3.4324,3.4126,3.4125,3.4125,3.4124,0,3.3771,3.3826,3.3879,3.3922,3.3954,3.4019,3.4016,3.405,3.4037,3.404,3.4116,3.4137,3.4183,3.4204,3.4193,3.4294,3.4276,3.4245,3.4189,3.4289,3.4327,3.4343,3.4132,3.4131,3.4129,3.4128,0,0,3.3936,3.3972,3.3991,3.4008,3.404,3.4082,3.4145,3.419,3.4217,3.425,3.4299,3.4369,3.4339,3.4364,3.4354,3.4398,3.4494,3.436,3.4361,3.4381,3.4603,3.4624,3.4643,3.4478,3.4481,3.4484,3.4599,0,3.4058,3.4167,3.4157,3.4259,3.4308,3.4276,3.4329,3.4354,3.4359,3.44,3.4405,3.4453,3.4412,3.4426,3.4468,3.4474,3.4538,3.4466,3.4522,3.4524,3.4512,3.4663,3.4686,3.4794,3.4614,3.4617,3.4619,0,3.4215,3.4251,3.4358,3.4379,3.4399,3.4448,3.4487,3.4528,3.4554,3.4554,3.4582,3.4564,3.4624,3.457,3.4651,3.4602,3.4625,3.4631,3.4635,3.4637,3.4575,3.4666,3.4829,3.4844,3.4643,3.4641,3.4639,0,3.432,3.4396,3.4468,3.4485,3.4514,3.4548,3.4561,3.4584,3.4611,3.4645,3.4661,3.4703,3.4725,3.4756,3.4749,3.4711,3.4832,3.4777,3.4831,3.4831,3.4856,3.4854,3.5021,3.4876,3.4876,3.4876,3.4875,0,3.4455,3.4521,3.4515,3.456,3.4631,3.462,3.4691,3.47,3.4721,3.4765,3.474,3.4782,3.4772,3.4813,3.4808,3.4875,3.4886,3.4886,3.4883,3.4886,3.4885,3.4898,3.4889,3.488,3.4879,3.4878,3.4877,0,3.4584,3.4584,3.466,3.468,3.4686,3.4738,3.4754,3.4795,3.4798,3.4854,3.4866,3.487,3.4916,3.4913,3.4967,3.4963,3.5044,3.5034,3.5035,3.5031,3.5084,3.5078,3.5263,3.5285,3.5129,3.5131,3.5132,0,3.4668,3.4718,3.4743,3.477,3.4785,3.4831,3.4857,3.4848,3.4877,3.4909,3.4945,3.499,3.5025,3.5101,3.5107,3.5147,3.5136,3.5198,3.5142,3.5142,3.5132,3.5128,3.5131,3.5208,3.521,3.5212,3.5213,0,3.4817,3.4814,3.4853,3.4893,3.4925,3.4955,3.4983,3.5007,3.5,3.5033,3.5081,3.5108,3.5161,3.5204,3.5242,3.5254,3.5231,3.5231,3.5245,3.5247,3.5243,3.5242,3.5061,3.5226,3.5225,3.5224,3.5223,3.5222,3.4923,3.4964,3.4987,3.5032,3.5051,3.5077,3.5116,3.5122,3.5162,3.5204,3.5196,3.5249,3.5271,3.5319,3.5335,3.5375,3.5352,3.5374,3.5378,3.5383,3.5387,3.524,3.5382,3.5382,3.5382,3.5381,3.5381,0,3.5067,3.508,3.5121,3.516,3.5194,3.5171,3.52,3.5229,3.5276,3.5299,3.5334,3.5386,3.5428,3.5438,3.5477,3.5507,3.5497,3.5517,3.5513,3.5515,3.5407,3.5389,3.5524,3.5524,3.5524,3.5524,3.5524,3.5524,3.5146,3.5213,3.5212,3.5288,3.53,3.5351,3.5369,3.5392,3.541,3.547,3.5504,3.5511,3.5528,3.5568,3.5604,3.5606,3.562,3.5643,3.564,3.5538,3.5523,3.551,3.5493,3.5647,3.5647,3.5745,3.5746,3.5747]},{"header":{"parameterUnit":"m.s-1","parameterCategory":1,"la1":30.2991,"la2":30.254,"lo1":-89.0895,"lo2":-89.0444,"dy":0.0017,"dx":0.0017,"nx":28,"ny":28,"refTime":"2023-09-12T21:00:00:Z","depth":0,"parameterNumber":3,"parameterNumberName":"V-component_of_WINDS"},"data":[0,0,0,0,0,0,0,0,0,0,0,0,0,0,0,0,0,0,0,0,0,0,0,0,0,0,0,0,0,0,0,0,0,0,0,0,0,0,0,0,0,0,0,0,0,0,0,0,0,0,0,0,0,0,0,0,0,0,2.5555,2.5556,0,2.5604,2.5605,2.5605,2.5568,2.5566,2.5565,2.5563,2.561,2.5613,2.5616,0,0,0,0,0,0,0,0,0,0,0,0,0,2.5425,2.5428,2.5555,2.5556,2.5557,2.5604,2.5605,2.5606,2.5568,2.5566,2.5564,2.5563,2.561,2.5613,2.5616,0,0,0,0,0,0,0,0,0,0,0,0,0,2.5479,2.5429,2.5555,2.5544,2.5543,2.5604,2.5605,2.5606,2.5569,2.5566,2.5564,2.5562,2.5609,2.5613,2.5617,2.5691,0,0,2.5629,2.5631,0,0,0,0,0,0,0,0,2.5476,2.5484,2.5545,2.5545,2.5544,2.5578,2.5576,2.5634,2.5569,2.5559,2.5563,2.556,2.5601,2.5606,2.562,2.5693,2.5695,2.563,2.5632,2.5634,2.5635,0,0,0,0,0,0,0,2.5472,2.5481,2.5575,2.5546,2.5545,2.5535,2.554,2.5587,2.5593,2.556,2.5557,2.5564,2.5601,2.5616,2.5621,2.5695,2.563,2.5633,2.5636,2.5637,2.5828,2.5831,0,0,0,0,0,0,2.547,2.5478,2.5573,2.5576,2.5503,2.5539,2.5545,2.5569,2.5592,2.5594,2.5566,2.5562,2.5611,2.5616,2.5623,2.5709,2.5634,2.5638,2.564,2.5826,2.5829,2.5831,0,0,0,0,0,0,2.5467,2.5479,2.5571,2.5527,2.5538,2.5544,2.5572,2.5572,2.5587,2.5597,2.5597,2.5581,2.5609,2.5617,2.5673,2.571,2.564,2.5643,2.5822,2.5826,2.583,2.5883,0,0,0,0,0,0,2.5464,2.5478,2.5507,2.5528,2.554,2.5623,2.5574,2.5574,2.5595,2.559,2.5611,2.5612,2.5608,2.5668,2.5678,2.5714,2.5647,2.5819,2.5824,2.5829,2.5878,2.5888,2.5897,0,0,0,0,0,2.5459,2.552,2.5509,2.5521,2.5577,2.5625,2.5632,2.5626,2.5598,2.5626,2.5632,2.5612,2.5705,2.5674,2.5685,2.5723,2.5817,2.5823,2.5828,2.5874,2.5886,2.5897,0,0,0,0,0,0,2.5504,2.5523,2.5511,2.558,2.5601,2.5618,2.5654,2.564,2.5668,2.5662,2.5653,2.5658,2.5717,2.5726,2.5691,2.5795,2.5756,2.5764,2.5787,2.5799,2.5808,2.5804,2.565,0,0,0,0,0,2.5522,2.556,2.5574,2.5634,2.5645,2.5648,2.5669,2.5662,2.5683,2.5692,2.5702,2.5722,2.5755,2.5778,2.5809,2.5879,2.5882,2.5911,2.5921,2.5928,2.5935,2.5971,2.5983,2.5851,2.5851,2.585,0,0,2.5559,2.5574,2.5599,2.5644,2.5659,2.5697,2.5656,2.5699,2.5727,2.5698,2.5752,2.576,2.5782,2.5845,2.5873,2.5854,2.5972,2.5936,2.5942,2.5944,2.5978,2.599,2.6002,2.5854,2.5854,2.5853,0,0,2.5646,2.5663,2.5713,2.573,2.5754,2.5755,2.5767,2.5787,2.5791,2.5845,2.5824,2.5856,2.5914,2.593,2.5946,2.6037,2.6019,2.6048,2.6097,2.6132,2.6142,2.6151,2.6182,2.6193,2.6055,2.6055,2.6055,0,2.5689,2.5748,2.5741,2.5785,2.5804,2.5781,2.5831,2.5847,2.5879,2.5892,2.5871,2.5942,2.5956,2.6021,2.6043,2.6057,2.6069,2.6045,2.6141,2.615,2.6159,2.6188,2.62,2.6058,2.6058,2.6058,2.6057,0,2.5798,2.5839,2.5877,2.5909,2.5933,2.598,2.5979,2.6003,2.5994,2.5997,2.6051,2.6066,2.6099,2.6114,2.6106,2.6178,2.6165,2.6143,2.6103,2.6175,2.6202,2.6213,2.6063,2.6062,2.6061,2.606,0,0,2.5915,2.5943,2.5957,2.597,2.5995,2.6025,2.607,2.6103,2.6123,2.6146,2.6182,2.6231,2.621,2.6228,2.6221,2.6252,2.6321,2.6225,2.6225,2.6241,2.6399,2.6414,2.6428,2.6309,2.6311,2.6313,2.6396,0,2.6002,2.6082,2.6076,2.615,2.6186,2.6163,2.6202,2.622,2.6224,2.6254,2.6257,2.6292,2.6262,2.6272,2.6302,2.6306,2.6352,2.63,2.6341,2.6342,2.6335,2.6442,2.6459,2.6537,2.6407,2.6409,2.641,0,2.6115,2.6142,2.6219,2.6236,2.6251,2.6286,2.6315,2.6345,2.6364,2.6364,2.6383,2.6371,2.6414,2.6375,2.6433,2.6398,2.6414,2.6419,2.6421,2.6424,2.638,2.6446,2.6562,2.6573,2.6427,2.6426,2.6425,0,2.619,2.6246,2.6299,2.6311,2.6333,2.6358,2.6368,2.6385,2.6404,2.6429,2.6441,2.6471,2.6486,2.6508,2.6503,2.6476,2.6562,2.6523,2.6562,2.6562,2.6581,2.6579,2.67,2.6594,2.6593,2.6593,2.6593,0,2.6287,2.6335,2.6332,2.6365,2.6417,2.641,2.6461,2.6468,2.6483,2.6515,2.6497,2.6528,2.652,2.655,2.6546,2.6593,2.6601,2.6601,2.6599,2.6602,2.6602,2.6611,2.6605,2.6596,2.6596,2.6595,2.6594,0,2.6379,2.638,2.6436,2.6452,2.6457,2.6494,2.6507,2.6537,2.6539,2.6579,2.6588,2.6591,2.6625,2.6622,2.666,2.6657,2.6716,2.6708,2.671,2.6707,2.6746,2.6742,2.6876,2.6892,2.6777,2.6778,2.6779,0,2.644,2.6476,2.6496,2.6516,2.6528,2.6562,2.6581,2.6575,2.6596,2.662,2.6646,2.6678,2.6703,2.6758,2.6762,2.6791,2.6783,2.6828,2.6787,2.6788,2.6781,2.6779,2.6781,2.6835,2.6837,2.6838,2.6838,0,2.6548,2.6546,2.6576,2.6605,2.6629,2.6652,2.6673,2.669,2.6686,2.671,2.6744,2.6764,2.6802,2.6834,2.686,2.6869,2.6852,2.6851,2.6862,2.6864,2.6862,2.6862,2.673,2.6848,2.6847,2.6846,2.6846,2.6846,2.6625,2.6656,2.6674,2.6707,2.6721,2.6741,2.6769,2.6774,2.6803,2.6834,2.6829,2.6867,2.6883,2.6917,2.6928,2.6957,2.6941,2.6956,2.696,2.6963,2.6967,2.6859,2.6962,2.6962,2.6962,2.6961,2.6961,0,2.673,2.6741,2.6771,2.68,2.6826,2.6809,2.6831,2.6853,2.6887,2.6904,2.6929,2.6967,2.6997,2.7004,2.7032,2.7054,2.7047,2.7061,2.7059,2.7061,2.6981,2.6968,2.7066,2.7066,2.7066,2.7066,2.7066,2.7066,2.6788,2.6838,2.6838,2.6894,2.6904,2.6941,2.6955,2.6972,2.6985,2.7029,2.7054,2.7059,2.7071,2.71,2.7126,2.7127,2.7137,2.7155,2.7152,2.7077,2.7067,2.7057,2.7045,2.7157,2.7157,2.723,2.723,2.7231]}]]